[Iaude] MPEC E90: 2016 FE12 [a=1.28,e=0.70,i=29.8,H=20.6]

mpec at mpcdb1.cfa.harvard.edu mpec at mpcdb1.cfa.harvard.edu
Tue Mar 12 17:51:16 EDT 2019


M.P.E.C. 2019-E90                                Issued 2019 Mar. 12, 21:47 UT
 
     The Minor Planet Electronic Circulars contain information on unusual
         minor planets and routine data on comets.  They are published
    on behalf of Division F of the International Astronomical Union by the
          Minor Planet Center, Smithsonian Astrophysical Observatory,
                          Cambridge, MA 02138, U.S.A.

             Prepared using the Tamkin Foundation Computer Network

                              MPC at CFA.HARVARD.EDU
            URL https://www.minorplanetcenter.net/    ISSN 1523-6714


                                   2016 FE12
 
                           Revision to MPEC 2016-F74
 
Additional Observations:
     K16F12E |C2019 03 07.36600 15 34 50.26 -25 03 24.1          22.1 GUEE090807
     K16F12E |C2019 03 07.37351 15 34 49.08 -25 03 34.2          22.2 GUEE090807
     K16F12E |C2019 03 07.38123 15 34 47.87 -25 03 44.9          22.2 GUEE090807
     K16F12E |C2019 03 12.37688 15 20 41.90 -26 51 56.3          21.7 GUEE090807
     K16F12E |C2019 03 12.38437 15 20 40.48 -26 52 05.6          21.6 GUEE090807
     K16F12E |C2019 03 12.39207 15 20 39.02 -26 52 15.3          21.6 GUEE090807
 
Observer details:
807 Cerro Tololo Observatory, La Serena.  Observers T. Linder, R. Holmes.
    1.00-m f/10.0 astrograph + CCD.
 
First and last observations above in comparison with prediction:
Residuals in seconds of arc (or two decimals in degrees), reference and Delta-T
190307 807 0.07+ 0.29+    190312 807 0.02- 0.28+    MPO419540   +0.86 day
 
Orbital elements:
2016 FE12                                                Earth MOID = 0.1031 AU
Epoch 2019 Apr. 27.0 TT = JDT 2458600.5                 MPC
M  90.61608              (2000.0)            P               Q
n   0.68412034     Peri.   47.37799     +0.56886554     -0.81873016
a   1.2755996      Node     9.00884     +0.52996580     +0.29246333
e   0.6973357      Incl.   29.84612     +0.62891036     +0.49411146
P   1.44           H   20.6           G   0.15           U   3
Residuals in seconds of arc
160317 C51  0.0   0.6+    160401 I52  0.3-  0.2+    160404 246  0.5-  0.0
160317 C51  0.0   0.4-    160401 I52  0.3-  0.1+    160404 246  0.4-  0.5+
160317 C51  0.3+  0.5+    160401 926  0.1-  0.2+    160404 246  0.5-  0.2+
160328 T05  0.2+  0.6+    160401 926  0.2+  0.2+    160404 246  0.1-  0.2+
160328 T05  0.2-  0.5+    160401 926  0.1-  0.1+    160404 246  0.8-  1.0+
160328 T05  0.9+  0.5+    160401 H45  0.4+  0.4-    160404 246  0.4+  0.6-
160328 T05  1.4+  0.3+    160401 H45  0.4-  0.4-    160404 246  0.3+  0.5-
160329 958  0.8-  1.3-    160401 H45  0.2-  0.2-    160405 H21  0.0   0.1+
160329 958  0.5-  1.4-    160401 H45  0.5+  0.2-    160405 H21  0.1-  0.2+
160329 958  0.4-  0.8-    160401 H45  0.2-  0.4-    160405 H21  0.0   0.2+
160329 B74  0.6-  0.1-    160401 H45  0.2+  0.2+    160405 H21  0.2-  0.0
160329 B74  0.0   0.1+    160401 H21  0.0   0.1+    160407 H45  0.1-  0.9-
160330 B74  0.2-  0.3+    160401 H21  0.0   0.0     160407 H45  0.0   0.1-
160330 850  0.1-  0.6-    160401 H21  0.0   0.1-    160407 H45  0.4+  0.5+
160330 850  0.4-  0.6-    160401 H21  0.0   0.1-    160407 H45  0.2+  0.3+
160330 850  0.1-  0.0     160401 H21  0.1-  0.0     160407 H45  0.2+  0.3+
160330 850  0.1+  0.1+    160401 H21  0.1-  0.1+    160407 H45  0.5+  0.3+
160330 W55  0.1+  0.2+    160401 H21  0.1+  0.0     160408 H21  0.2-  0.1+
160330 I47  0.6+  0.5+    160402 T05  0.6+  1.1-    160408 H21  0.1-  0.1+
160330 W55  0.4+  0.5+    160402 T05  0.8+  0.1+    160408 H21  0.1-  0.1-
160330 I47  0.1+  0.1+    160402 T05  0.7-  0.6+    160410 204  0.0   0.1-
160330 850  0.1-  0.0     160402 T05  1.1-  0.5+    160410 204  0.0   0.1+
160330 I47  0.0   0.3+    160402 246  0.1-  0.0     160410 204  0.0   0.1+
160330 W55  0.1-  0.3+    160402 246  0.1-  0.3-    160410 204  0.0   0.2+
160330 850  0.1-  0.2-    160402 246  0.4-  0.1+    160410 204  0.1+  0.1+
160330 H21  0.1+  0.3+    160402 246  0.1-  0.0     160411 807  0.1+  0.3-
160330 H21  0.1+  0.2+    160402 246  0.2-  0.2-    160411 807  0.3-  0.3-
160330 H21  0.1-  0.2+    160402 246  0.0   0.3-    160411 807  0.4-  0.1+
160330 H21  0.1-  0.2+    160402 246  0.4-  0.1+    160411 807  0.4+  0.1-
160330 H21  0.0   0.0     160403 G45  0.1-  0.4+    160411 807  0.3+  0.1+
160330 H21  0.0   0.2+    160403 G45  0.1+  0.3-    160411 926  0.1-  0.3+
160330 300  0.8+  0.6-    160403 G45  0.2+  0.5+    160411 926  0.2-  0.1-
160330 300  0.2-  0.1+    160403 G45  0.1-  0.0     160411 926  0.1-  0.2-
160330 300  0.8+  0.8-    160403 G45  0.4+  0.2+    160412 H21  0.1-  0.2-
160330 300  0.3+  0.9-    160403 G45  0.1+  0.0     160412 H21  0.2+  0.0
160330 300  0.5+  0.4-    160403 G45  0.1-  0.0     160412 H21  0.1+  0.1-
160330 300  0.4-  0.0     160403 H21  0.0   0.3+    160415 H21  0.2-  0.3+
160330 300  0.1+  0.4-    160403 H21  0.0   0.2+    160415 H21  0.1+  0.2-
160330 160  0.2-  0.0     160403 H21  0.1+  0.2+    160415 H21  0.2-  0.1-
160330 160  0.5-  0.3-    160403 H21  0.2+  0.1+    160426 926  0.5-  0.0
160330 160  0.1-  0.0     160403 H21  0.1+  0.1+    160426 926  0.2-  0.0
160330 160  0.2+  0.4-    160403 H21  0.2+  0.0     160426 926  0.1-  0.2-
160330 160  0.3+  0.2-    160403 H21  0.1+  0.1+    190307 807  0.4-  0.3+
160330 160  0.2-  0.0     160404 H45  0.1+  0.0     190307 807  0.2-  0.3+
160331 926  0.1-  0.3+    160404 H45  0.2+  0.3+    190307 807  0.1+  0.0
160331 926  0.3+  0.1+    160404 H45  0.4+  0.0     190312 807  0.0   0.2-
160331 926  0.1+  0.2+    160404 H45  0.1+  0.1-    190312 807  0.1+  0.1-
160401 I52  0.1-  0.0     160404 H45  0.4+  0.3+    190312 807  0.2+  0.3-
160401 I52  0.1+  0.0     160404 H45  0.1+  0.1+

Ephemeris:
2016 FE12                a,e,i = 1.28, 0.70, 30                  q = 0.3861
Date    TT    R. A. (2000) Decl.     Delta      r     Elong.  Phase     V
2019 02 10    16 14 00.8 -15 17 05   0.7404  1.0853    76.4    62.1    22.3
...
2019 02 25    15 56 20.1 -21 04 47   0.7022  1.2574    94.5    51.7    22.2
...
2019 03 05    15 40 37.1 -24 09 59   0.6774  1.3408   105.3    45.5    22.1
...
2019 03 11    15 24 50.9 -26 22 55   0.6607  1.3997   114.1    40.4    22.0
2019 03 12    15 21 51.4 -26 44 04   0.6583  1.4093   115.6    39.5    22.0
2019 03 13    15 18 45.6 -27 04 49   0.6560  1.4188   117.2    38.6    22.0
...
2019 03 19    14 58 00.6 -28 58 44   0.6457  1.4739   126.5    32.9    21.9
...
2019 03 27    14 25 19.1 -30 49 20   0.6441  1.5432   139.1    25.0    21.7
...
2019 04 11    13 19 09.4 -31 17 58   0.6928  1.6610   156.7    13.8    21.7

A. U. Tomatic                (C) Copyright 2019 MPC           M.P.E.C. 2019-E90



More information about the Iaude mailing list